Flag for Lithuania Weather past 2 weeks in Vilnius, Lithuania

25 °F


Feels Like: 14 °F
Forecast: 25 / 32 °F
Wind: 12 mph from South

Location: Vilnius Airport

Current Time: Nov 26, 2015 at 2:54:08 AM

Latest Report: Nov 26, 2015 at 2:20 AM

Visibility: 4 mi

Pressure: 29.89 "Hg

Humidity: 80%

Dew point: 19 °F

Location of VilniusLocation

Historic Weather in Vilnius — Graph


Vilnius temperature yesterday

Maximum temperature yesterday: 32 °F (at 11:20 AM)
Minimum temperature yesterday: 25 °F (at 8:50 PM)
Average temperature yesterday: 28 °F

Past Weeks' High & Low Weather Summary

High54 °F (Nov 11, 2:20 PM)100% (Nov 11, 7:50 AM)30.18 "Hg (Nov 11, 7:50 AM)
Low25 °F (Nov 25, 8:50 PM)64% (Nov 25, 1:20 PM)29.27 "Hg (Nov 20, 11:50 AM)
Average40 °F91%29.71 "Hg
* Reported Nov 11 1:50 AM — Nov 26 1:20 AM, Vilnius, Weather by CustomWeather, © 2015

Note: Actual official high and low records may vary slightly from our data, if they occured in-between our weather recording intervals... More about our weather records


Vilnius weather history for previous 24 hours

Time TempWeatherWind HumidityBarometerVisibility
1:20 AM
Thu, Nov 26
25 °FClear.14 mph80%29.89 "Hg4 mi
12:50 AM25 °FClear.14 mph80%29.89 "Hg4 mi
12:20 AM25 °FPassing clouds.13 mph80%29.89 "HgN/A
11:50 PM
Wed, Nov 25
25 °FPassing clouds.12 mph80%29.92 "HgN/A
11:20 PM25 °FPassing clouds.12 mph80%29.92 "HgN/A
10:50 PM25 °FPassing clouds.13 mph80%29.92 "HgN/A
10:20 PM25 °FPassing clouds.13 mph80%29.92 "HgN/A
9:50 PM25 °FPassing clouds.12 mph80%29.92 "HgN/A
9:20 PM25 °FPassing clouds.12 mph80%29.92 "HgN/A
8:50 PM25 °FPassing clouds.12 mph80%29.92 "HgN/A
8:20 PM27 °FPassing clouds.10 mph74%29.92 "HgN/A
7:50 PM27 °FPassing clouds.10 mph74%29.92 "HgN/A
7:20 PM27 °FPassing clouds.9 mph74%29.92 "HgN/A
6:50 PM27 °FPassing clouds.12 mph74%29.92 "HgN/A
6:20 PM27 °FPassing clouds.10 mph74%29.92 "HgN/A
5:50 PM27 °FPassing clouds.12 mph74%29.92 "HgN/A
5:20 PM28 °FPassing clouds.10 mph69%29.95 "HgN/A
4:50 PM28 °FPassing clouds.9 mph74%29.95 "HgN/A
4:20 PM28 °FPassing clouds.10 mph74%29.95 "HgN/A
3:50 PM28 °FPartly sunny.10 mph74%29.95 "HgN/A
3:20 PM30 °FPartly sunny.9 mph69%29.95 "HgN/A
2:50 PM30 °FBroken clouds.14 mph69%29.95 "HgN/A
2:20 PM30 °FBroken clouds.13 mph69%29.95 "HgN/A
1:50 PM32 °FBroken clouds.12 mph69%29.95 "HgN/A
1:20 PM32 °FBroken clouds.12 mph64%29.98 "HgN/A
12:50 PM32 °FBroken clouds.13 mph69%29.98 "HgN/A
12:20 PM32 °FBroken clouds.13 mph69%29.98 "Hg4 mi
11:50 AM30 °FBroken clouds.14 mph75%30.01 "Hg4 mi
11:20 AM32 °FBroken clouds.15 mph69%30.01 "Hg4 mi
10:50 AM30 °FBroken clouds.12 mph75%30.01 "Hg4 mi
10:20 AM30 °FBroken clouds.10 mph75%30.01 "Hg4 mi
9:50 AM28 °FBroken clouds.12 mph86%30.01 "Hg4 mi
9:20 AM28 °FBroken clouds.10 mph86%30.01 "Hg4 mi
8:50 AM28 °FBroken clouds.10 mph86%30.01 "Hg4 mi
8:20 AM27 °FBroken clouds.8 mph93%30.01 "Hg4 mi
7:50 AM27 °FPartly cloudy.8 mph93%30.01 "Hg4 mi
7:20 AM27 °FClear.9 mph93%30.01 "Hg4 mi
6:50 AM27 °FClear.8 mph93%30.01 "Hg4 mi
6:20 AM27 °FClear.8 mph93%30.01 "Hg4 mi
5:50 AM27 °FClear.9 mph93%30.04 "Hg4 mi
5:20 AM27 °FIce fog.7 mph93%30.04 "Hg2 mi
4:50 AM27 °FIce fog.7 mph93%30.04 "Hg2 mi
4:20 AM27 °FIce fog.8 mph93%30.04 "Hg2 mi
3:50 AM27 °FIce fog.9 mph93%30.07 "Hg2 mi
3:20 AM27 °FIce fog.9 mph93%30.07 "Hg2 mi
2:20 AM27 °FIce fog.7 mph93%30.07 "Hg2 mi
Weather by CustomWeather, © 2015

See weather overviewHow to use our weather pages